Home   Weather   Patna   Past weeks
Flag for India

Past Weather in Patna, Bihar, India — Yesterday and Last 2 Weeks

Now
95 °F

Scattered clouds.


Feels Like: 113 °F
Forecast: 93 / 83 °F
Wind: 6 mph from Northeast

Location: Patna Airport

Current Time: Jul 19, 2019 at 1:45:03 pm

Latest Report: Jul 19, 2019 at 1:00 pm


Visibility: 3 mi

Pressure: 29.53 "Hg

Humidity: 60%

Dew Point: 79 °F

Location of PatnaLocation

Past Weather in Patna — Graph

°F

Patna Temperature Yesterday

Maximum temperature yesterday: 95 °F (at 10:00 am)
Minimum temperature yesterday: 84 °F (at 2:30 am)
Average temperature yesterday: 90 °F

High & Low Weather Summary for the Past Weeks

 TemperatureHumidityPressure
High97 °F (Jul 6, 1:30 pm)100% (Jul 7, 10:30 am)29.59 "Hg (Jul 7, 10:30 am)
Low75 °F (Jul 14, 12:00 am)50% (Jul 6, 1:30 pm)29.27 "Hg (Jul 5, 4:00 pm)
Average85 °F82%29.45 "Hg
* Reported Jul 4 12:30 pm — Jul 19 12:30 pm, Patna. Weather by CustomWeather, © 2019

Note: Actual official high and low records may vary slightly from our data, if they occured in-between our weather recording intervals... More about our weather records

Advertising

Patna Weather History for the Previous 24 Hours

Scroll right to see more
 ConditionsComfort  
Time TempWeatherWind HumidityBarometerVisibility
12:30 pm
Fri, Jul 19
95 °FScattered clouds.7 mph60%29.56 "Hg3 mi
12:00 pm95 °FScattered clouds.7 mph60%29.56 "Hg3 mi
11:30 am95 °FHaze.7 mph60%29.59 "Hg3 mi
11:00 am93 °FHaze.7 mph63%29.59 "Hg2 mi
10:30 am93 °FHaze.6 mph63%29.59 "Hg2 mi
10:00 am93 °FHaze.7 mph63%29.59 "Hg2 mi
9:30 am93 °FHaze.3 mph67%29.59 "Hg2 mi
9:00 am93 °FHaze.3 mph63%29.59 "Hg2 mi
8:30 am91 °FHaze.3 mph67%29.59 "Hg2 mi
8:00 am90 °FHaze.3 mph71%29.59 "Hg2 mi
7:30 am88 °FScattered clouds.3 mph75%29.56 "Hg2 mi
7:00 am88 °FScattered clouds.2 mph75%29.56 "Hg2 mi
6:30 am84 °FScattered clouds.No wind84%29.56 "Hg2 mi
6:00 am84 °FScattered clouds.No wind84%29.56 "Hg2 mi
5:30 am84 °FPassing clouds.No wind84%29.56 "Hg2 mi
5:00 am84 °FPassing clouds.No wind84%29.53 "Hg2 mi
4:00 am84 °FPassing clouds.No wind89%29.50 "Hg2 mi
3:30 am86 °FPassing clouds.3 mph84%29.53 "Hg2 mi
3:00 am86 °FPassing clouds.5 mph84%29.53 "Hg2 mi
2:30 am84 °FPassing clouds.No wind89%29.53 "Hg2 mi
1:30 am84 °FPassing clouds.No wind89%29.53 "Hg2 mi
1:00 am86 °FPassing clouds.No wind89%29.53 "Hg2 mi
12:30 am86 °FPassing clouds.No wind89%29.56 "Hg2 mi
11:30 pm
Thu, Jul 18
86 °FPassing clouds.No wind89%29.56 "Hg2 mi
11:00 pm88 °FPassing clouds.No wind84%29.56 "Hg2 mi
10:30 pm88 °FPassing clouds.No wind84%29.56 "Hg2 mi
10:00 pm86 °FPassing clouds.No wind89%29.56 "Hg2 mi
9:30 pm88 °FPassing clouds.No wind84%29.56 "Hg2 mi
9:00 pm88 °FPassing clouds.No wind84%29.53 "Hg2 mi
8:30 pm88 °FPassing clouds.No wind84%29.53 "Hg2 mi
8:00 pm88 °FPassing clouds.No wind79%29.53 "Hg2 mi
7:30 pm88 °FPassing clouds.No wind79%29.50 "Hg2 mi
7:00 pm90 °FScattered clouds.No wind75%29.47 "Hg2 mi
6:30 pm90 °FScattered clouds.No wind75%29.47 "Hg2 mi
6:00 pm90 °FScattered clouds.No wind75%29.47 "Hg2 mi
5:30 pm90 °FScattered clouds.3 mph71%29.47 "Hg2 mi
5:00 pm90 °FBroken clouds.3 mph75%29.47 "Hg2 mi
4:30 pm86 °FLight rain. Broken clouds.3 mph84%29.47 "Hg1 mi
4:00 pm86 °FRain. More clouds than sun.7 mph79%29.47 "Hg1 mi
3:30 pm95 °FBroken clouds.3 mph56%29.47 "Hg2 mi
3:00 pm95 °FBroken clouds.3 mph56%29.47 "Hg2 mi
2:30 pm95 °FBroken clouds.3 mph56%29.50 "Hg3 mi
2:00 pm95 °FBroken clouds.3 mph56%29.50 "Hg3 mi
1:30 pm95 °FScattered clouds.5 mph60%29.53 "Hg3 mi
1:00 pm95 °FScattered clouds.6 mph60%29.53 "Hg2 mi
Weather by CustomWeather, © 2019

See weather overview